Location: Newark
(50.4348°N, 30.5552°E)
Time: 18:03:48
(UTC+00:00)

Altair - Pass Details

Date: 28 January 2020
Orbit: 1502 x 1682 km, 47.2° (Epoch: 22 February)

Event Time Altitude Azimuth Distance (km) Brightness Sun altitude
Rises 10:44:50 0° 283° (WNW) 4,935 10.1 20.9°
Reaches altitude 10° 10:48:04 10° 280° (W) 3,949 9.7 20.8°
Maximum altitude 10:57:53 57° 206° (SSW) 1,922 9.1 20.5°
Drops below altitude 10° 11:07:33 10° 131° (SE) 3,879 10.1 20.2°
Sets 11:10:42 0° 127° (SE) 4,843 10.4 20.0°
